Time,TemperatureF,DewpointF,PressureIn,WindDirection,WindDirectionDegrees,WindSpeedMPH,WindSpeedGustMPH,Humidity,HourlyPrecipIn,Conditions,Clouds,dailyrainin,SoftwareType,DateUTC
2013-12-18 00:02:00,22.2,17.3,30.09,WSW,242,9.0,9.0,81,0.00,,,0.00,Wunderground v.1.15,2013-12-18 05:02:00,
2013-12-18 00:04:00,22.2,17.5,30.09,SW,232,9.0,9.0,82,0.00,,,0.00,Wunderground v.1.15,2013-12-18 05:04:00,
2013-12-18 00:06:00,22.2,17.5,30.09,SW,228,9.0,9.0,82,0.00,,,0.00,Wunderground v.1.15,2013-12-18 05:06:00,
2013-12-18 00:08:00,22.2,17.8,30.09,SW,231,8.0,9.0,83,0.00,,,0.00,Wunderground v.1.15,2013-12-18 05:08:00,
2013-12-18 00:12:00,22.1,17.4,30.09,WSW,240,8.0,9.0,82,0.00,,,0.00,Wunderground v.1.15,2013-12-18 05:12:00,
2013-12-18 00:18:00,21.7,17.1,30.09,WSW,245,8.0,9.0,82,0.00,,,0.00,Wunderground v.1.15,2013-12-18 05:18:00,
2013-12-18 00:22:00,21.7,17.3,30.09,WSW,239,7.0,7.0,83,0.00,,,0.00,Wunderground v.1.15,2013-12-18 05:22:00,
2013-12-18 00:28:00,21.7,17.3,30.09,WSW,240,7.0,7.0,83,0.00,,,0.00,Wunderground v.1.15,2013-12-18 05:28:00,
2013-12-18 00:34:00,21.2,16.6,30.09,SW,226,7.0,7.0,82,0.00,,,0.00,Wunderground v.1.15,2013-12-18 05:34:00,
2013-12-18 00:39:00,20.4,16.1,30.09,SW,222,7.0,7.0,83,0.00,,,0.00,Wunderground v.1.15,2013-12-18 05:39:00,
2013-12-18 00:46:00,20.1,16.0,30.09,SSW,210,7.0,7.0,84,0.00,,,0.00,Wunderground v.1.15,2013-12-18 05:46:00,
2013-12-18 00:52:00,20.0,16.2,30.09,SW,228,7.0,7.0,85,0.00,,,0.00,Wunderground v.1.15,2013-12-18 05:52:00,
2013-12-18 00:58:00,20.1,16.6,30.09,SW,226,7.0,7.0,86,0.00,,,0.00,Wunderground v.1.15,2013-12-18 05:58:00,
2013-12-18 01:04:00,20.4,16.9,30.09,SW,226,7.0,8.0,86,0.00,,,0.00,Wunderground v.1.15,2013-12-18 06:04:00,
2013-12-18 01:10:00,20.9,17.4,30.09,SW,233,7.0,8.0,86,0.00,,,0.00,Wunderground v.1.15,2013-12-18 06:10:00,
2013-12-18 01:16:00,21.2,17.7,30.08,SW,223,8.0,8.0,86,0.00,,,0.00,Wunderground v.1.15,2013-12-18 06:16:00,
2013-12-18 01:22:00,21.5,18.0,30.08,SSW,207,7.0,7.0,86,0.00,,,0.00,Wunderground v.1.15,2013-12-18 06:22:00,
2013-12-18 01:28:00,21.5,18.0,30.08,SSW,210,6.0,8.0,86,0.00,,,0.00,Wunderground v.1.15,2013-12-18 06:28:00,
2013-12-18 01:34:00,21.7,18.2,30.08,SW,223,7.0,10.0,86,0.00,,,0.00,Wunderground v.1.15,2013-12-18 06:34:00,
2013-12-18 01:40:00,21.9,18.4,30.08,SW,228,8.0,8.0,86,0.00,,,0.00,Wunderground v.1.15,2013-12-18 06:40:00,
2013-12-18 01:46:00,21.9,18.4,30.08,SW,226,8.0,8.0,86,0.00,,,0.00,Wunderground v.1.15,2013-12-18 06:46:00,
2013-12-18 01:52:00,22.0,18.5,30.09,SW,224,8.0,9.0,86,0.00,,,0.00,Wunderground v.1.15,2013-12-18 06:52:00,
2013-12-18 01:58:00,22.3,18.7,30.09,SW,224,8.0,9.0,86,0.00,,,0.00,Wunderground v.1.15,2013-12-18 06:58:00,
2013-12-18 02:03:00,22.5,18.9,30.09,WSW,247,8.0,9.0,86,0.00,,,0.00,Wunderground v.1.15,2013-12-18 07:03:00,
2013-12-18 02:10:00,22.7,18.9,30.09,WSW,240,9.0,9.0,85,0.00,,,0.00,Wunderground v.1.15,2013-12-18 07:10:00,
2013-12-18 02:16:00,22.5,18.7,30.09,SW,232,9.0,9.0,85,0.00,,,0.00,Wunderground v.1.15,2013-12-18 07:16:00,
2013-12-18 02:22:00,22.4,18.6,30.09,SW,233,9.0,10.0,85,0.00,,,0.00,Wunderground v.1.15,2013-12-18 07:22:00,
2013-12-18 02:27:00,22.3,18.5,30.09,SW,224,9.0,11.0,85,0.00,,,0.00,Wunderground v.1.15,2013-12-18 07:27:00,
2013-12-18 02:33:00,22.1,18.3,30.09,SW,229,9.0,10.0,85,0.00,,,0.00,Wunderground v.1.15,2013-12-18 07:33:00,
2013-12-18 02:40:00,22.1,18.0,30.10,SW,225,9.0,12.0,84,0.00,,,0.00,Wunderground v.1.15,2013-12-18 07:40:00,
2013-12-18 02:46:00,22.1,18.3,30.10,SW,231,10.0,12.0,85,0.00,,,0.00,Wunderground v.1.15,2013-12-18 07:46:00,
2013-12-18 02:52:00,22.3,18.5,30.10,SW,229,10.0,10.0,85,0.00,,,0.00,Wunderground v.1.15,2013-12-18 07:52:00,
2013-12-18 02:58:00,22.5,18.4,30.10,WSW,250,10.0,11.0,84,0.00,,,0.00,Wunderground v.1.15,2013-12-18 07:58:00,
2013-12-18 03:04:00,22.6,18.5,30.10,SW,233,10.0,10.0,84,0.00,,,0.00,Wunderground v.1.15,2013-12-18 08:04:00,
2013-12-18 03:10:00,22.7,18.6,30.11,SW,235,10.0,10.0,84,0.00,,,0.00,Wunderground v.1.15,2013-12-18 08:10:00,
2013-12-18 03:16:00,22.7,18.6,30.11,WSW,248,8.0,10.0,84,0.00,,,0.00,Wunderground v.1.15,2013-12-18 08:16:00,
2013-12-18 03:22:00,22.7,18.3,30.11,SW,236,7.0,8.0,83,0.00,,,0.00,Wunderground v.1.15,2013-12-18 08:22:00,
2013-12-18 03:28:00,22.9,18.5,30.11,SW,235,8.0,10.0,83,0.00,,,0.00,Wunderground v.1.15,2013-12-18 08:28:00,
2013-12-18 03:34:00,22.9,18.5,30.11,WSW,247,8.0,8.0,83,0.00,,,0.00,Wunderground v.1.15,2013-12-18 08:34:00,
2013-12-18 03:40:00,23.1,18.7,30.11,WSW,250,8.0,9.0,83,0.00,,,0.00,Wunderground v.1.15,2013-12-18 08:40:00,
2013-12-18 03:46:00,23.3,18.6,30.11,WSW,239,8.0,9.0,82,0.00,,,0.00,Wunderground v.1.15,2013-12-18 08:46:00,
2013-12-18 03:52:00,23.4,18.7,30.11,WSW,238,8.0,9.0,82,0.00,,,0.00,Wunderground v.1.15,2013-12-18 08:52:00,
2013-12-18 03:58:00,23.4,18.7,30.12,WSW,250,9.0,9.0,82,0.00,,,0.00,Wunderground v.1.15,2013-12-18 08:58:00,
2013-12-18 04:04:00,23.4,18.7,30.11,WSW,252,8.0,9.0,82,0.00,,,0.00,Wunderground v.1.15,2013-12-18 09:04:00,
2013-12-18 04:10:00,23.4,19.0,30.11,WSW,246,7.0,7.0,83,0.00,,,0.00,Wunderground v.1.15,2013-12-18 09:10:00,
2013-12-18 04:16:00,23.4,19.0,30.11,WSW,252,7.0,8.0,83,0.00,,,0.00,Wunderground v.1.15,2013-12-18 09:16:00,
2013-12-18 04:22:00,23.5,19.1,30.12,WSW,255,8.0,8.0,83,0.00,,,0.00,Wunderground v.1.15,2013-12-18 09:22:00,
2013-12-18 04:28:00,23.5,19.1,30.11,WSW,252,8.0,10.0,83,0.00,,,0.00,Wunderground v.1.15,2013-12-18 09:28:00,
2013-12-18 04:33:00,23.5,19.1,30.11,WSW,246,9.0,9.0,83,0.00,,,0.00,Wunderground v.1.15,2013-12-18 09:33:00,
2013-12-18 04:40:00,23.6,19.2,30.11,WSW,248,9.0,9.0,83,0.00,,,0.00,Wunderground v.1.15,2013-12-18 09:40:00,
2013-12-18 04:46:00,23.6,19.2,30.11,SW,233,8.0,9.0,83,0.00,,,0.00,Wunderground v.1.15,2013-12-18 09:46:00,
2013-12-18 04:52:00,23.5,19.1,30.12,WSW,245,7.0,7.0,83,0.00,,,0.00,Wunderground v.1.15,2013-12-18 09:52:00,
2013-12-18 04:58:00,23.4,19.3,30.12,WSW,253,7.0,8.0,84,0.00,,,0.00,Wunderground v.1.15,2013-12-18 09:58:00,
2013-12-18 05:04:00,23.3,19.2,30.12,WSW,257,7.0,8.0,84,0.00,,,0.00,Wunderground v.1.15,2013-12-18 10:04:00,
2013-12-18 05:10:00,23.2,19.1,30.12,WSW,238,8.0,8.0,84,0.00,,,0.00,Wunderground v.1.15,2013-12-18 10:10:00,
2013-12-18 05:16:00,23.2,19.1,30.12,WSW,242,8.0,10.0,84,0.00,,,0.00,Wunderground v.1.15,2013-12-18 10:16:00,
2013-12-18 05:22:00,23.1,19.0,30.12,WSW,240,8.0,9.0,84,0.00,,,0.00,Wunderground v.1.15,2013-12-18 10:22:00,
2013-12-18 05:28:00,23.0,18.9,30.12,SW,229,8.0,9.0,84,0.00,,,0.00,Wunderground v.1.15,2013-12-18 10:28:00,
2013-12-18 05:34:00,22.9,18.8,30.13,WSW,248,7.0,8.0,84,0.00,,,0.00,Wunderground v.1.15,2013-12-18 10:34:00,
2013-12-18 05:40:00,22.8,18.7,30.13,WSW,249,7.0,9.0,84,0.00,,,0.00,Wunderground v.1.15,2013-12-18 10:40:00,
2013-12-18 05:46:00,22.8,18.7,30.13,WSW,240,8.0,9.0,84,0.00,,,0.00,Wunderground v.1.15,2013-12-18 10:46:00,
2013-12-18 05:52:00,22.8,18.7,30.13,WSW,239,9.0,9.0,84,0.00,,,0.00,Wunderground v.1.15,2013-12-18 10:52:00,
2013-12-18 05:58:00,22.8,18.7,30.13,WSW,243,8.0,9.0,84,0.00,,,0.00,Wunderground v.1.15,2013-12-18 10:58:00,
2013-12-18 06:04:00,22.7,18.6,30.13,WSW,242,7.0,7.0,84,0.00,,,0.00,Wunderground v.1.15,2013-12-18 11:04:00,
2013-12-18 06:10:00,22.7,18.6,30.14,WSW,239,6.0,8.0,84,0.00,,,0.00,Wunderground v.1.15,2013-12-18 11:10:00,
2013-12-18 06:14:00,22.7,18.6,30.13,SW,229,7.0,9.0,84,0.00,,,0.00,Wunderground v.1.15,2013-12-18 11:14:00,
2013-12-18 06:20:00,22.6,18.5,30.13,WSW,251,7.0,7.0,84,0.00,,,0.00,Wunderground v.1.15,2013-12-18 11:20:00,
2013-12-18 06:26:00,22.4,18.3,30.13,SW,233,7.0,7.0,84,0.00,,,0.00,Wunderground v.1.15,2013-12-18 11:26:00,
2013-12-18 06:32:00,22.1,18.0,30.13,WSW,249,7.0,10.0,84,0.00,,,0.00,Wunderground v.1.15,2013-12-18 11:32:00,
2013-12-18 06:38:00,21.5,17.1,30.13,SW,231,8.0,10.0,83,0.00,,,0.00,Wunderground v.1.15,2013-12-18 11:38:00,
2013-12-18 06:44:00,21.0,16.6,30.13,WSW,249,8.0,9.0,83,0.00,,,0.00,Wunderground v.1.15,2013-12-18 11:44:00,
2013-12-18 06:50:00,20.4,16.3,30.14,SW,224,7.0,7.0,84,0.00,,,0.00,Wunderground v.1.15,2013-12-18 11:50:00,
2013-12-18 06:56:00,19.4,15.1,30.14,SW,224,6.0,7.0,83,0.00,,,0.00,Wunderground v.1.15,2013-12-18 11:56:00,
2013-12-18 07:02:00,18.2,14.4,30.15,SW,218,6.0,7.0,85,0.00,,,0.00,Wunderground v.1.15,2013-12-18 12:02:00,
2013-12-18 07:08:00,17.9,14.4,30.16,SW,233,5.0,7.0,86,0.00,,,0.00,Wunderground v.1.15,2013-12-18 12:08:00,
2013-12-18 07:14:00,18.2,14.7,30.16,WSW,248,6.0,8.0,86,0.00,,,0.00,Wunderground v.1.15,2013-12-18 12:14:00,
2013-12-18 07:20:00,17.7,13.7,30.16,WSW,242,6.0,7.0,84,0.00,,,0.00,Wunderground v.1.15,2013-12-18 12:20:00,
2013-12-18 07:26:00,17.3,13.6,30.17,SW,233,6.0,7.0,85,0.00,,,0.00,Wunderground v.1.15,2013-12-18 12:26:00,
2013-12-18 07:32:00,16.2,12.2,30.16,SW,218,6.0,6.0,84,0.00,,,0.00,Wunderground v.1.15,2013-12-18 12:32:00,
2013-12-18 07:38:00,15.5,12.1,30.17,WSW,239,6.0,7.0,86,0.00,,,0.00,Wunderground v.1.15,2013-12-18 12:38:00,
2013-12-18 07:44:00,15.4,12.0,30.17,SW,226,6.0,6.0,86,0.00,,,0.00,Wunderground v.1.15,2013-12-18 12:44:00,
2013-12-18 07:50:00,15.1,11.7,30.17,SW,225,6.0,6.0,86,0.00,,,0.00,Wunderground v.1.15,2013-12-18 12:50:00,
2013-12-18 07:56:00,14.9,11.7,30.17,WSW,239,6.0,6.0,87,0.00,,,0.00,Wunderground v.1.15,2013-12-18 12:56:00,
2013-12-18 08:02:00,13.9,10.5,30.17,SW,221,5.0,5.0,86,0.00,,,0.00,Wunderground v.1.15,2013-12-18 13:02:00,
2013-12-18 08:08:00,13.3,9.9,30.17,SW,217,5.0,7.0,86,0.00,,,0.00,Wunderground v.1.15,2013-12-18 13:08:00,
2013-12-18 08:14:00,13.0,9.6,30.17,SW,221,5.0,6.0,86,0.00,,,0.00,Wunderground v.1.15,2013-12-18 13:14:00,
2013-12-18 08:20:00,12.9,9.8,30.17,SW,214,5.0,5.0,87,0.00,,,0.00,Wunderground v.1.15,2013-12-18 13:20:00,
2013-12-18 08:25:00,12.7,9.6,30.18,SW,217,5.0,7.0,87,0.00,,,0.00,Wunderground v.1.15,2013-12-18 13:25:00,
2013-12-18 08:32:00,12.7,9.6,30.18,SSW,211,5.0,5.0,87,0.00,,,0.00,Wunderground v.1.15,2013-12-18 13:32:00,
2013-12-18 08:38:00,12.8,9.7,30.18,SSW,213,5.0,5.0,87,0.00,,,0.00,Wunderground v.1.15,2013-12-18 13:38:00,
2013-12-18 08:44:00,12.5,9.4,30.18,SW,215,5.0,5.0,87,0.00,,,0.00,Wunderground v.1.15,2013-12-18 13:44:00,
2013-12-18 08:50:00,12.6,9.5,30.18,SW,224,5.0,5.0,87,0.00,,,0.00,Wunderground v.1.15,2013-12-18 13:50:00,
2013-12-18 08:56:00,12.1,8.7,30.19,SW,221,5.0,5.0,86,0.00,,,0.00,Wunderground v.1.15,2013-12-18 13:56:00,
2013-12-18 09:02:00,12.2,9.1,30.18,SSW,211,5.0,5.0,87,0.00,,,0.00,Wunderground v.1.15,2013-12-18 14:02:00,
2013-12-18 09:08:00,12.6,9.5,30.19,SW,217,5.0,5.0,87,0.00,,,0.00,Wunderground v.1.15,2013-12-18 14:08:00,
2013-12-18 09:14:00,12.6,9.2,30.19,SW,217,5.0,8.0,86,0.00,,,0.00,Wunderground v.1.15,2013-12-18 14:14:00,
2013-12-18 09:20:00,12.9,9.2,30.19,SW,222,6.0,6.0,85,0.00,,,0.00,Wunderground v.1.15,2013-12-18 14:20:00,
2013-12-18 09:26:00,13.3,9.9,30.19,SW,229,6.0,7.0,86,0.00,,,0.00,Wunderground v.1.15,2013-12-18 14:26:00,
2013-12-18 09:32:00,13.6,9.9,30.19,SW,232,6.0,7.0,85,0.00,,,0.00,Wunderground v.1.15,2013-12-18 14:32:00,
2013-12-18 09:38:00,13.8,10.1,30.20,SW,229,7.0,7.0,85,0.00,,,0.00,Wunderground v.1.15,2013-12-18 14:38:00,
2013-12-18 09:44:00,14.2,10.3,30.20,SW,228,6.0,7.0,84,0.00,,,0.00,Wunderground v.1.15,2013-12-18 14:44:00,
2013-12-18 09:50:00,14.5,10.5,30.20,SW,216,6.0,6.0,84,0.00,,,0.00,Wunderground v.1.15,2013-12-18 14:50:00,
2013-12-18 09:56:00,15.2,11.2,30.20,WSW,238,6.0,6.0,84,0.00,,,0.00,Wunderground v.1.15,2013-12-18 14:56:00,
2013-12-18 10:02:00,15.9,11.7,30.21,SW,236,5.0,5.0,83,0.00,,,0.00,Wunderground v.1.15,2013-12-18 15:02:00,
2013-12-18 10:08:00,16.3,11.8,30.21,WSW,253,5.0,6.0,82,0.00,,,0.00,Wunderground v.1.15,2013-12-18 15:08:00,
2013-12-18 10:14:00,16.8,12.3,30.21,WSW,244,5.0,7.0,82,0.00,,,0.00,Wunderground v.1.15,2013-12-18 15:14:00,
2013-12-18 10:20:00,17.0,12.2,30.22,WSW,245,5.0,5.0,81,0.00,,,0.00,Wunderground v.1.15,2013-12-18 15:20:00,
2013-12-18 10:25:00,17.4,12.6,30.21,WSW,255,5.0,7.0,81,0.00,,,0.00,Wunderground v.1.15,2013-12-18 15:25:00,
2013-12-18 10:31:00,17.5,12.7,30.22,SW,236,6.0,6.0,81,0.00,,,0.00,Wunderground v.1.15,2013-12-18 15:31:00,
2013-12-18 10:38:00,17.8,13.0,30.21,SW,232,6.0,7.0,81,0.00,,,0.00,Wunderground v.1.15,2013-12-18 15:38:00,
2013-12-18 10:44:00,18.1,13.0,30.21,WSW,250,6.0,6.0,80,0.00,,,0.00,Wunderground v.1.15,2013-12-18 15:44:00,
2013-12-18 10:50:00,18.3,13.2,30.22,WSW,250,5.0,5.0,80,0.00,,,0.00,Wunderground v.1.15,2013-12-18 15:50:00,
2013-12-18 10:56:00,18.6,13.5,30.22,WSW,239,6.0,7.0,80,0.00,,,0.00,Wunderground v.1.15,2013-12-18 15:56:00,
2013-12-18 11:02:00,19.0,13.6,30.22,WSW,248,7.0,8.0,79,0.00,,,0.00,Wunderground v.1.15,2013-12-18 16:02:00,
2013-12-18 11:08:00,19.1,13.7,30.23,WSW,250,7.0,10.0,79,0.00,,,0.00,Wunderground v.1.15,2013-12-18 16:08:00,
2013-12-18 11:14:00,19.3,13.9,30.23,WSW,256,8.0,10.0,79,0.00,,,0.00,Wunderground v.1.15,2013-12-18 16:14:00,
2013-12-18 11:20:00,19.5,13.8,30.23,West,259,9.0,11.0,78,0.00,,,0.00,Wunderground v.1.15,2013-12-18 16:20:00,
2013-12-18 11:26:00,19.6,13.9,30.23,WSW,252,9.0,11.0,78,0.00,,,0.00,Wunderground v.1.15,2013-12-18 16:26:00,
2013-12-18 11:32:00,19.8,14.0,30.23,WSW,256,9.0,11.0,78,0.00,,,0.00,Wunderground v.1.15,2013-12-18 16:32:00,
2013-12-18 11:38:00,20.0,14.2,30.22,WSW,257,9.0,11.0,78,0.00,,,0.00,Wunderground v.1.15,2013-12-18 16:38:00,
2013-12-18 11:44:00,20.1,14.3,30.22,WSW,256,8.0,9.0,78,0.00,,,0.00,Wunderground v.1.15,2013-12-18 16:44:00,
2013-12-18 11:50:00,20.2,14.1,30.22,WSW,246,7.0,9.0,77,0.00,,,0.00,Wunderground v.1.15,2013-12-18 16:50:00,
2013-12-18 11:56:00,20.5,14.7,30.22,West,262,8.0,9.0,78,0.00,,,0.00,Wunderground v.1.15,2013-12-18 16:56:00,
2013-12-18 12:02:00,20.8,14.7,30.22,WSW,250,7.0,8.0,77,0.00,,,0.00,Wunderground v.1.15,2013-12-18 17:02:00,
2013-12-18 12:08:00,21.1,15.0,30.22,West,267,6.0,8.0,77,0.00,,,0.00,Wunderground v.1.15,2013-12-18 17:08:00,
2013-12-18 12:14:00,21.7,15.6,30.22,SW,233,6.0,8.0,77,0.00,,,0.00,Wunderground v.1.15,2013-12-18 17:14:00,
2013-12-18 12:20:00,22.0,15.6,30.21,WSW,253,6.0,7.0,76,0.00,,,0.00,Wunderground v.1.15,2013-12-18 17:20:00,
2013-12-18 12:26:00,22.2,15.8,30.22,WSW,257,8.0,8.0,76,0.00,,,0.00,Wunderground v.1.15,2013-12-18 17:26:00,
2013-12-18 12:32:00,22.4,16.0,30.21,WSW,256,8.0,8.0,76,0.00,,,0.00,Wunderground v.1.15,2013-12-18 17:32:00,
2013-12-18 12:38:00,22.7,16.0,30.20,West,260,6.0,8.0,75,0.00,,,0.00,Wunderground v.1.15,2013-12-18 17:38:00,
2013-12-18 12:44:00,23.2,16.1,30.20,SW,228,5.0,6.0,74,0.00,,,0.00,Wunderground v.1.15,2013-12-18 17:44:00,
2013-12-18 12:49:00,23.8,16.7,30.20,SW,228,6.0,7.0,74,0.00,,,0.00,Wunderground v.1.15,2013-12-18 17:49:00,
2013-12-18 12:55:00,24.3,17.2,30.19,WSW,238,6.0,7.0,74,0.00,,,0.00,Wunderground v.1.15,2013-12-18 17:55:00,
2013-12-18 13:02:00,25.0,17.6,30.19,SW,224,5.0,6.0,73,0.00,,,0.00,Wunderground v.1.15,2013-12-18 18:02:00,
2013-12-18 13:09:00,25.3,16.9,30.18,SW,225,7.0,7.0,70,0.00,,,0.00,Wunderground v.1.15,2013-12-18 18:09:00,
2013-12-18 13:16:00,25.1,17.0,30.18,SW,215,8.0,8.0,71,0.00,,,0.00,Wunderground v.1.15,2013-12-18 18:16:00,
2013-12-18 13:22:00,24.6,16.5,30.18,SW,224,9.0,10.0,71,0.00,,,0.00,Wunderground v.1.15,2013-12-18 18:22:00,
2013-12-18 13:28:00,24.5,16.4,30.18,SSW,210,9.0,10.0,71,0.00,,,0.00,Wunderground v.1.15,2013-12-18 18:28:00,
2013-12-18 13:34:00,24.2,16.5,30.18,SW,218,9.0,10.0,72,0.00,,,0.00,Wunderground v.1.15,2013-12-18 18:34:00,
2013-12-18 13:40:00,24.1,16.4,30.18,SW,215,10.0,13.0,72,0.00,,,0.00,Wunderground v.1.15,2013-12-18 18:40:00,
2013-12-18 13:46:00,24.0,16.3,30.17,SSW,208,11.0,13.0,72,0.00,,,0.00,Wunderground v.1.15,2013-12-18 18:46:00,
2013-12-18 13:52:00,24.2,16.5,30.17,SSW,211,10.0,11.0,72,0.00,,,0.00,Wunderground v.1.15,2013-12-18 18:52:00,
2013-12-18 13:58:00,24.2,16.8,30.16,SSW,211,10.0,13.0,73,0.00,,,0.00,Wunderground v.1.15,2013-12-18 18:58:00,
2013-12-18 14:04:00,24.2,16.5,30.16,SW,222,11.0,12.0,72,0.00,,,0.00,Wunderground v.1.15,2013-12-18 19:04:00,
2013-12-18 14:10:00,24.5,17.1,30.16,SW,228,10.0,10.0,73,0.00,,,0.00,Wunderground v.1.15,2013-12-18 19:10:00,
2013-12-18 14:16:00,24.6,16.5,30.15,SW,228,10.0,12.0,71,0.00,,,0.00,Wunderground v.1.15,2013-12-18 19:16:00,
2013-12-18 14:22:00,24.9,17.1,30.15,SW,224,9.0,10.0,72,0.00,,,0.00,Wunderground v.1.15,2013-12-18 19:22:00,
2013-12-18 14:28:00,25.1,17.3,30.15,SW,222,8.0,10.0,72,0.00,,,0.00,Wunderground v.1.15,2013-12-18 19:28:00,
2013-12-18 14:34:00,25.3,17.5,30.15,SW,222,8.0,8.0,72,0.00,,,0.00,Wunderground v.1.15,2013-12-18 19:34:00,
2013-12-18 14:40:00,25.6,17.5,30.15,SW,218,8.0,8.0,71,0.00,,,0.00,Wunderground v.1.15,2013-12-18 19:40:00,
2013-12-18 14:46:00,25.8,17.7,30.14,SW,218,8.0,8.0,71,0.00,,,0.00,Wunderground v.1.15,2013-12-18 19:46:00,
2013-12-18 14:52:00,25.7,18.2,30.14,SSW,207,7.0,7.0,73,0.00,,,0.00,Wunderground v.1.15,2013-12-18 19:52:00,
2013-12-18 14:58:00,25.6,18.1,30.13,SSW,207,8.0,8.0,73,0.00,,,0.00,Wunderground v.1.15,2013-12-18 19:58:00,
2013-12-18 15:04:00,25.9,18.1,30.13,SSW,208,8.0,8.0,72,0.00,,,0.00,Wunderground v.1.15,2013-12-18 20:04:00,
2013-12-18 15:10:00,25.8,18.3,30.13,SW,217,7.0,8.0,73,0.00,,,0.00,Wunderground v.1.15,2013-12-18 20:10:00,
2013-12-18 15:16:00,25.9,18.4,30.13,SSW,201,7.0,8.0,73,0.00,,,0.00,Wunderground v.1.15,2013-12-18 20:16:00,
2013-12-18 15:22:00,25.9,18.4,30.13,SSW,197,7.0,7.0,73,0.00,,,0.00,Wunderground v.1.15,2013-12-18 20:22:00,
2013-12-18 15:28:00,26.0,18.5,30.13,SSW,195,7.0,8.0,73,0.00,,,0.00,Wunderground v.1.15,2013-12-18 20:28:00,
2013-12-18 15:34:00,26.3,18.5,30.12,SSW,205,7.0,9.0,72,0.00,,,0.00,Wunderground v.1.15,2013-12-18 20:34:00,
2013-12-18 15:40:00,27.2,18.7,30.12,South,181,8.0,8.0,70,0.00,,,0.00,Wunderground v.1.15,2013-12-18 20:40:00,
2013-12-18 15:46:00,27.7,18.5,30.12,SSW,200,7.0,9.0,68,0.00,,,0.00,Wunderground v.1.15,2013-12-18 20:46:00,
2013-12-18 15:52:00,27.3,18.1,30.11,ESE,115,8.0,8.0,68,0.00,,,0.00,Wunderground v.1.15,2013-12-18 20:52:00,
2013-12-18 15:58:00,27.3,18.1,30.11,SSW,198,9.0,11.0,68,0.00,,,0.00,Wunderground v.1.15,2013-12-18 20:58:00,
2013-12-18 16:04:00,28.0,18.5,30.10,South,184,8.0,9.0,67,0.00,,,0.00,Wunderground v.1.15,2013-12-18 21:04:00,
2013-12-18 16:10:00,28.3,19.1,30.10,SE,141,5.0,5.0,68,0.00,,,0.00,Wunderground v.1.15,2013-12-18 21:10:00,
2013-12-18 16:16:00,28.3,19.1,30.10,SE,135,3.0,5.0,68,0.00,,,0.00,Wunderground v.1.15,2013-12-18 21:16:00,
2013-12-18 16:22:00,28.3,19.1,30.09,SE,136,2.0,4.0,68,0.00,,,0.00,Wunderground v.1.15,2013-12-18 21:22:00,
2013-12-18 16:28:00,28.3,19.1,30.09,ESE,110,1.0,4.0,68,0.00,,,0.00,Wunderground v.1.15,2013-12-18 21:28:00,
2013-12-18 16:33:00,28.0,19.1,30.08,South,172,0.0,4.0,69,0.00,,,0.00,Wunderground v.1.15,2013-12-18 21:33:00,
2013-12-18 16:40:00,27.9,18.7,30.08,SSW,201,1.0,1.0,68,0.00,,,0.00,Wunderground v.1.15,2013-12-18 21:40:00,
2013-12-18 16:46:00,27.7,18.8,30.08,SSE,160,1.0,4.0,69,0.00,,,0.00,Wunderground v.1.15,2013-12-18 21:46:00,
2013-12-18 16:52:00,27.1,18.3,30.07,ESE,114,0.0,4.0,69,0.00,,,0.00,Wunderground v.1.15,2013-12-18 21:52:00,
2013-12-18 16:57:00,26.1,17.6,30.07,East,81,0.0,4.0,70,0.00,,,0.00,Wunderground v.1.15,2013-12-18 21:57:00,
2013-12-18 17:04:00,25.2,17.4,30.06,SE,146,0.0,4.0,72,0.00,,,0.00,Wunderground v.1.15,2013-12-18 22:04:00,
2013-12-18 17:10:00,24.3,17.2,30.06,WSW,240,0.0,4.0,74,0.00,,,0.00,Wunderground v.1.15,2013-12-18 22:10:00,
2013-12-18 17:16:00,23.7,16.9,30.06,SW,214,0.0,4.0,75,0.00,,,0.00,Wunderground v.1.15,2013-12-18 22:16:00,
2013-12-18 17:22:00,23.4,16.9,30.05,SW,215,0.0,6.0,76,0.00,,,0.00,Wunderground v.1.15,2013-12-18 22:22:00,
2013-12-18 17:28:00,23.4,16.9,30.05,SSW,193,1.0,6.0,76,0.00,,,0.00,Wunderground v.1.15,2013-12-18 22:28:00,
2013-12-18 17:34:00,22.7,16.6,30.04,NNE,21,0.0,4.0,77,0.00,,,0.00,Wunderground v.1.15,2013-12-18 22:34:00,
2013-12-18 17:40:00,22.5,16.7,30.03,NE,56,0.0,4.0,78,0.00,,,0.00,Wunderground v.1.15,2013-12-18 22:40:00,
2013-12-18 17:46:00,22.1,16.0,30.03,ENE,78,1.0,4.0,77,0.00,,,0.00,Wunderground v.1.15,2013-12-18 22:46:00,
2013-12-18 17:52:00,21.1,15.6,30.03,NE,40,1.0,4.0,79,0.00,,,0.00,Wunderground v.1.15,2013-12-18 22:52:00,
2013-12-18 17:58:00,20.1,14.6,30.03,ESE,108,0.0,4.0,79,0.00,,,0.00,Wunderground v.1.15,2013-12-18 22:58:00,
2013-12-18 18:04:00,19.8,14.6,30.02,ESE,111,0.0,4.0,80,0.00,,,0.00,Wunderground v.1.15,2013-12-18 23:04:00,
2013-12-18 18:10:00,20.8,15.6,30.02,SE,143,1.0,1.0,80,0.00,,,0.00,Wunderground v.1.15,2013-12-18 23:10:00,
2013-12-18 18:16:00,21.2,16.0,30.02,ESE,105,1.0,4.0,80,0.00,,,0.00,Wunderground v.1.15,2013-12-18 23:16:00,
2013-12-18 18:22:00,21.8,16.3,30.02,ESE,105,1.0,4.0,79,0.00,,,0.00,Wunderground v.1.15,2013-12-18 23:22:00,
2013-12-18 18:28:00,22.1,16.3,30.02,SSE,162,1.0,4.0,78,0.00,,,0.00,Wunderground v.1.15,2013-12-18 23:28:00,
2013-12-18 18:34:00,22.2,16.4,30.01,ESE,117,1.0,4.0,78,0.00,,,0.00,Wunderground v.1.15,2013-12-18 23:34:00,
2013-12-18 18:40:00,22.4,16.9,30.01,SSW,212,1.0,4.0,79,0.00,,,0.00,Wunderground v.1.15,2013-12-18 23:40:00,
2013-12-18 18:46:00,22.9,17.1,30.00,SSW,198,1.0,4.0,78,0.00,,,0.00,Wunderground v.1.15,2013-12-18 23:46:00,
2013-12-18 18:52:00,23.7,17.8,30.00,South,186,2.0,4.0,78,0.00,,,0.00,Wunderground v.1.15,2013-12-18 23:52:00,
2013-12-18 18:58:00,24.3,17.8,30.00,South,173,2.0,4.0,76,0.00,,,0.00,Wunderground v.1.15,2013-12-18 23:58:00,
2013-12-18 19:04:00,24.5,18.0,29.99,ESE,123,2.0,4.0,76,0.00,,,0.00,Wunderground v.1.15,2013-12-19 00:04:00,
2013-12-18 19:10:00,24.6,18.1,29.99,WSW,250,1.0,4.0,76,0.00,,,0.00,Wunderground v.1.15,2013-12-19 00:10:00,
2013-12-18 19:16:00,24.7,17.9,29.99,SE,133,1.0,4.0,75,0.00,,,0.00,Wunderground v.1.15,2013-12-19 00:16:00,
2013-12-18 19:22:00,24.8,18.0,29.99,SSE,148,2.0,4.0,75,0.00,,,0.00,Wunderground v.1.15,2013-12-19 00:22:00,
2013-12-18 19:28:00,24.9,18.1,29.99,SSE,159,2.0,5.0,75,0.00,,,0.00,Wunderground v.1.15,2013-12-19 00:28:00,
2013-12-18 19:34:00,25.7,18.6,29.98,SSW,207,3.0,6.0,74,0.00,,,0.00,Wunderground v.1.15,2013-12-19 00:34:00,
2013-12-18 19:40:00,27.0,18.8,29.98,South,187,5.0,8.0,71,0.00,,,0.00,Wunderground v.1.15,2013-12-19 00:40:00,
2013-12-18 19:46:00,27.9,19.0,29.98,SW,214,8.0,10.0,69,0.00,,,0.00,Wunderground v.1.15,2013-12-19 00:46:00,
2013-12-18 19:52:00,28.4,19.2,29.98,South,191,9.0,9.0,68,0.00,,,0.00,Wunderground v.1.15,2013-12-19 00:52:00,
2013-12-18 19:58:00,28.8,19.6,29.98,South,171,12.0,13.0,68,0.00,,,0.00,Wunderground v.1.15,2013-12-19 00:58:00,
2013-12-18 20:04:00,29.2,19.6,29.98,South,186,13.0,13.0,67,0.00,,,0.00,Wunderground v.1.15,2013-12-19 01:04:00,
2013-12-18 20:10:00,29.6,19.6,29.98,SSW,201,12.0,16.0,66,0.00,,,0.00,Wunderground v.1.15,2013-12-19 01:10:00,
2013-12-18 20:16:00,29.7,19.7,29.97,South,176,13.0,16.0,66,0.00,,,0.00,Wunderground v.1.15,2013-12-19 01:16:00,
2013-12-18 20:22:00,29.7,20.1,29.97,SSW,193,13.0,16.0,67,0.00,,,0.00,Wunderground v.1.15,2013-12-19 01:22:00,
2013-12-18 20:28:00,29.9,20.3,29.97,SSW,201,13.0,16.0,67,0.00,,,0.00,Wunderground v.1.15,2013-12-19 01:28:00,
2013-12-18 20:34:00,30.2,20.9,29.97,South,184,14.0,20.0,68,0.00,,,0.00,Wunderground v.1.15,2013-12-19 01:34:00,
2013-12-18 20:40:00,30.3,20.6,29.97,South,191,15.0,15.0,67,0.00,,,0.00,Wunderground v.1.15,2013-12-19 01:40:00,
2013-12-18 20:46:00,30.4,21.1,29.97,SSW,193,14.0,19.0,68,0.00,,,0.00,Wunderground v.1.15,2013-12-19 01:46:00,
2013-12-18 20:52:00,30.6,20.9,29.96,SSW,200,14.0,14.0,67,0.00,,,0.00,Wunderground v.1.15,2013-12-19 01:52:00,
2013-12-18 20:58:00,30.8,21.1,29.96,SSW,200,14.0,19.0,67,0.00,,,0.00,Wunderground v.1.15,2013-12-19 01:58:00,
2013-12-18 21:04:00,31.1,21.4,29.96,South,191,15.0,16.0,67,0.00,,,0.00,Wunderground v.1.15,2013-12-19 02:04:00,
2013-12-18 21:10:00,31.2,21.9,29.96,SSW,195,15.0,15.0,68,0.00,,,0.00,Wunderground v.1.15,2013-12-19 02:10:00,
2013-12-18 21:16:00,31.5,21.8,29.96,SSW,201,15.0,18.0,67,0.00,,,0.00,Wunderground v.1.15,2013-12-19 02:16:00,
2013-12-18 21:22:00,31.8,22.1,29.96,SSW,200,16.0,16.0,67,0.00,,,0.00,Wunderground v.1.15,2013-12-19 02:22:00,
2013-12-18 21:28:00,32.1,22.4,29.96,SSW,205,17.0,20.0,67,0.00,,,0.00,Wunderground v.1.15,2013-12-19 02:28:00,
2013-12-18 21:34:00,32.0,22.6,29.96,SSW,209,17.0,17.0,68,0.00,,,0.00,Wunderground v.1.15,2013-12-19 02:34:00,
2013-12-18 21:40:00,32.2,23.5,29.95,SSW,211,17.0,17.0,70,0.00,,,0.00,Wunderground v.1.15,2013-12-19 02:40:00,
2013-12-18 21:46:00,32.5,23.8,29.95,SSW,200,18.0,20.0,70,0.00,,,0.00,Wunderground v.1.15,2013-12-19 02:46:00,
2013-12-18 21:52:00,32.5,23.8,29.95,SSW,208,17.0,18.0,70,0.00,,,0.00,Wunderground v.1.15,2013-12-19 02:52:00,
2013-12-18 21:58:00,32.6,24.2,29.95,SSW,210,17.0,18.0,71,0.00,,,0.00,Wunderground v.1.15,2013-12-19 02:58:00,
2013-12-18 22:04:00,32.7,24.3,29.95,SW,222,17.0,17.0,71,0.00,,,0.00,Wunderground v.1.15,2013-12-19 03:04:00,
2013-12-18 22:10:00,32.7,24.0,29.95,SW,214,17.0,19.0,70,0.00,,,0.00,Wunderground v.1.15,2013-12-19 03:10:00,
2013-12-18 22:16:00,32.8,24.1,29.95,SSW,204,16.0,19.0,70,0.00,,,0.00,Wunderground v.1.15,2013-12-19 03:16:00,
2013-12-18 22:22:00,33.0,24.6,29.95,SW,221,17.0,17.0,71,0.00,,,0.00,Wunderground v.1.15,2013-12-19 03:22:00,
2013-12-18 22:28:00,33.2,24.5,29.94,SSW,205,17.0,19.0,70,0.00,,,0.00,Wunderground v.1.15,2013-12-19 03:28:00,
2013-12-18 22:34:00,33.5,24.4,29.94,SSW,207,18.0,19.0,69,0.00,,,0.00,Wunderground v.1.15,2013-12-19 03:34:00,
2013-12-18 22:40:00,33.4,24.7,29.95,SSW,203,17.0,17.0,70,0.00,,,0.00,Wunderground v.1.15,2013-12-19 03:40:00,
2013-12-18 22:46:00,33.3,24.9,29.94,SSW,201,17.0,17.0,71,0.00,,,0.00,Wunderground v.1.15,2013-12-19 03:46:00,
2013-12-18 22:52:00,33.3,24.6,29.94,SSW,204,17.0,19.0,70,0.00,,,0.00,Wunderground v.1.15,2013-12-19 03:52:00,
2013-12-18 22:58:00,33.3,24.9,29.94,SSW,204,17.0,19.0,71,0.00,,,0.00,Wunderground v.1.15,2013-12-19 03:58:00,
2013-12-18 23:04:00,33.2,24.1,29.94,South,190,17.0,21.0,69,0.00,,,0.00,Wunderground v.1.15,2013-12-19 04:04:00,
2013-12-18 23:10:00,33.3,24.6,29.93,SSW,212,17.0,17.0,70,0.00,,,0.00,Wunderground v.1.15,2013-12-19 04:10:00,
2013-12-18 23:16:00,33.1,24.7,29.94,SSW,207,17.0,17.0,71,0.00,,,0.00,Wunderground v.1.15,2013-12-19 04:16:00,
2013-12-18 23:22:00,33.2,24.5,29.94,SSW,203,15.0,16.0,70,0.00,,,0.00,Wunderground v.1.15,2013-12-19 04:22:00,
2013-12-18 23:28:00,33.1,24.7,29.94,SW,214,15.0,16.0,71,0.00,,,0.00,Wunderground v.1.15,2013-12-19 04:28:00,
2013-12-18 23:34:00,33.2,24.5,29.94,SW,221,16.0,17.0,70,0.00,,,0.00,Wunderground v.1.15,2013-12-19 04:34:00,
2013-12-18 23:40:00,32.9,24.2,29.93,SSW,202,16.0,18.0,70,0.00,,,0.00,Wunderground v.1.15,2013-12-19 04:40:00,
2013-12-18 23:46:00,32.9,24.2,29.93,SW,221,15.0,18.0,70,0.00,,,0.00,Wunderground v.1.15,2013-12-19 04:46:00,
2013-12-18 23:52:00,32.9,23.8,29.93,SW,221,14.0,16.0,69,0.00,,,0.00,Wunderground v.1.15,2013-12-19 04:52:00,
2013-12-18 23:58:00,32.9,23.5,29.93,SSW,194,14.0,16.0,68,0.00,,,0.00,Wunderground v.1.15,2013-12-19 04:58:00,